Overview Statistics Trail Chart Weather Telemetry Raw packets
 

This is the latest recevied weather packets stored in our database for station/object WA9NNN-10. If no packets are shown the sender has not sent any weather packets the latest 10 day(s).

<< 58 59 60 61 62 63 64 >>
Time Temp. Humidity Pressure Rain* Wind** Luminosity Snow
1788190410 22.78° C 88% 1015.3 hPa 1.02 mm - - -
1788190111 22.78° C 88% 1015.4 hPa 1.02 mm - - -
1788189211 22.78° C 88% 1015.6 hPa 0 mm - - -
1788188911 22.78° C 89% 1015.6 hPa 0 mm - - -
1788188610 22.78° C 88% 1015.5 hPa 0 mm - - -
1788188311 22.78° C 89% 1015.4 hPa 0 mm - - -
1788188010 22.22° C 89% 1015.4 hPa 0.25 mm - - -
1788187711 22.22° C 89% 1015.4 hPa 0.25 mm - - -
1788187411 22.22° C 89% 1015.4 hPa 0.25 mm - - -
1788187111 22.22° C 89% 1015.5 hPa 0.25 mm - - -
1788186811 22.22° C 89% 1015.5 hPa 0.25 mm - - -
1788186511 22.22° C 89% 1015.7 hPa 0.25 mm - - -
1788186210 22.22° C 89% 1015.5 hPa 0.51 mm - - -
1788185911 22.22° C 89% 1015.7 hPa 1.02 mm - - -
1788185611 22.22° C 88% 1015.6 hPa 3.3 mm - - -
1788185311 22.22° C 88% 1015.7 hPa 3.56 mm - - -
1788185011 22.22° C 88% 1015.8 hPa 3.56 mm - - -
1788184711 22.22° C 88% 1016.1 hPa 3.81 mm - - -
1788184411 22.22° C 88% 1016.2 hPa 3.56 mm - - -
1788184111 22.22° C 87% 1016.3 hPa 3.56 mm - - -
1788183810 22.22° C 87% 1016.2 hPa 3.56 mm - - -
1788183511 22.22° C 87% 1016.2 hPa 3.56 mm - - -
1788183218 22.22° C 87% 1016.1 hPa 3.56 mm - - -
1788182911 22.22° C 87% 1016.1 hPa 3.56 mm - - -
1788182610 22.22° C 86% 1016.4 hPa 3.3 mm - - -

* Rain latest hour (hover to see other rain measurements)
** Current wind speed in m/s (hover to see current wind gust speed)